TimeEDT,TemperatureF,Dew PointF,Humidity,Sea Level PressureIn,VisibilityMPH,Wind Direction,Wind SpeedMPH,Gust SpeedMPH,PrecipitationIn,Events,Conditions,WindDirDegrees,DateUTC
12:16 AM,39.4,33.8,80,30.13,10.0,WNW,9.2,18.4,N/A,,Mostly Cloudy,300,2013-10-25 04:16:00
12:35 AM,39.2,33.3,79,30.13,10.0,NW,8.1,-,N/A,,Scattered Clouds,320,2013-10-25 04:35:00
12:56 AM,39.4,33.1,78,30.14,10.0,NW,8.1,-,N/A,,Overcast,310,2013-10-25 04:56:00
1:15 AM,39.4,33.3,79,30.15,10.0,NW,9.2,-,N/A,,Overcast,310,2013-10-25 05:15:00
1:36 AM,39.7,33.4,78,30.15,10.0,WNW,10.4,19.6,N/A,,Overcast,300,2013-10-25 05:36:00
1:55 AM,39.2,33.8,81,30.15,10.0,WNW,4.6,-,N/A,,Mostly Cloudy,300,2013-10-25 05:55:00
2:16 AM,39.2,33.8,81,30.15,10.0,WNW,5.8,-,N/A,,Mostly Cloudy,300,2013-10-25 06:16:00
2:35 AM,39.6,33.3,78,30.16,10.0,WNW,8.1,-,N/A,,Mostly Cloudy,300,2013-10-25 06:35:00
2:55 AM,40.1,33.3,77,30.17,10.0,WNW,10.4,-,N/A,,Mostly Cloudy,300,2013-10-25 06:55:00
3:16 AM,40.1,34.0,79,30.17,10.0,West,9.2,-,N/A,,Overcast,280,2013-10-25 07:16:00
3:36 AM,39.7,34.0,80,30.17,10.0,West,9.2,16.1,N/A,,Overcast,280,2013-10-25 07:36:00
3:55 AM,39.4,34.0,81,30.16,10.0,West,6.9,-,N/A,,Overcast,280,2013-10-25 07:55:00
4:16 AM,40.1,34.2,79,30.16,10.0,West,9.2,-,N/A,,Overcast,270,2013-10-25 08:16:00
4:36 AM,39.6,33.4,79,30.17,10.0,West,6.9,-,N/A,,Overcast,270,2013-10-25 08:36:00
4:55 AM,39.2,32.9,78,30.17,10.0,West,8.1,-,N/A,,Overcast,280,2013-10-25 08:55:00
5:16 AM,38.5,33.3,81,30.18,10.0,WNW,6.9,-,N/A,,Mostly Cloudy,290,2013-10-25 09:16:00
5:35 AM,38.3,33.3,82,30.18,10.0,West,4.6,-,N/A,,Scattered Clouds,270,2013-10-25 09:35:00
5:55 AM,38.3,33.6,83,30.18,10.0,West,6.9,-,N/A,,Scattered Clouds,270,2013-10-25 09:55:00
6:16 AM,37.8,33.8,86,30.19,10.0,West,4.6,-,N/A,,Scattered Clouds,270,2013-10-25 10:16:00
6:35 AM,38.3,33.8,84,30.19,10.0,West,4.6,-,N/A,,Scattered Clouds,270,2013-10-25 10:35:00
6:55 AM,38.3,33.8,84,30.19,10.0,West,6.9,-,N/A,,Clear,270,2013-10-25 10:55:00
7:16 AM,39.4,33.6,80,30.19,10.0,West,6.9,-,N/A,,Mostly Cloudy,280,2013-10-25 11:16:00
7:35 AM,38.5,33.8,83,30.19,10.0,West,5.8,-,N/A,,Mostly Cloudy,280,2013-10-25 11:35:00
7:55 AM,38.3,32.9,81,30.19,10.0,West,5.8,-,N/A,,Scattered Clouds,280,2013-10-25 11:55:00
8:16 AM,38.7,32.4,78,30.20,10.0,West,5.8,-,N/A,,Clear,280,2013-10-25 12:16:00
8:35 AM,38.7,32.0,77,30.20,10.0,West,8.1,-,N/A,,Clear,280,2013-10-25 12:35:00
8:56 AM,40.1,32.0,73,30.21,10.0,West,5.8,-,N/A,,Clear,280,2013-10-25 12:56:00
9:15 AM,41.0,29.7,64,30.20,10.0,West,6.9,-,N/A,,Clear,280,2013-10-25 13:15:00
9:35 AM,42.1,30.2,63,30.20,10.0,West,5.8,-,N/A,,Clear,280,2013-10-25 13:35:00
9:56 AM,42.4,30.0,61,30.20,10.0,West,5.8,-,N/A,,Clear,280,2013-10-25 13:56:00
10:15 AM,41.7,30.7,65,30.20,10.0,West,9.2,-,N/A,,Clear,270,2013-10-25 14:15:00
10:36 AM,41.9,32.0,68,30.20,10.0,West,5.8,-,N/A,,Clear,260,2013-10-25 14:36:00
10:56 AM,44.4,32.0,62,30.19,10.0,West,6.9,16.1,N/A,,Clear,280,2013-10-25 14:56:00
11:15 AM,44.6,30.9,59,30.18,10.0,West,8.1,-,N/A,,Clear,260,2013-10-25 15:15:00
11:36 AM,44.2,30.4,58,30.18,10.0,WSW,10.4,-,N/A,,Scattered Clouds,250,2013-10-25 15:36:00
11:55 AM,45.7,30.4,55,30.18,10.0,West,11.5,-,N/A,,Scattered Clouds,260,2013-10-25 15:55:00
12:15 PM,45.5,31.1,57,30.18,10.0,WSW,12.7,17.3,N/A,,Scattered Clouds,240,2013-10-25 16:15:00
12:36 PM,46.6,30.9,54,30.18,10.0,West,15.0,-,N/A,,Scattered Clouds,260,2013-10-25 16:36:00
12:55 PM,45.9,31.1,56,30.17,10.0,WSW,15.0,-,N/A,,Scattered Clouds,250,2013-10-25 16:55:00
1:15 PM,45.9,32.0,58,30.15,10.0,WSW,13.8,-,N/A,,Scattered Clouds,240,2013-10-25 17:15:00
1:36 PM,45.5,31.6,58,30.15,10.0,WSW,17.3,21.9,N/A,,Scattered Clouds,250,2013-10-25 17:36:00
1:55 PM,43.9,31.3,61,30.13,10.0,WSW,16.1,25.3,N/A,,Scattered Clouds,240,2013-10-25 17:55:00
2:16 PM,46.2,31.3,56,30.13,10.0,WSW,13.8,21.9,N/A,,Mostly Cloudy,240,2013-10-25 18:16:00
2:35 PM,44.8,27.9,52,30.11,10.0,WSW,13.8,20.7,N/A,,Mostly Cloudy,240,2013-10-25 18:35:00
2:56 PM,44.8,28.6,53,30.10,10.0,WSW,20.7,26.5,N/A,,Overcast,250,2013-10-25 18:56:00
3:16 PM,44.1,28.2,54,30.10,10.0,WSW,19.6,27.6,N/A,,Overcast,240,2013-10-25 19:16:00
3:35 PM,43.9,27.1,52,30.09,10.0,WSW,16.1,25.3,N/A,,Overcast,240,2013-10-25 19:35:00
3:56 PM,44.2,27.0,51,30.07,10.0,SW,18.4,25.3,N/A,,Overcast,230,2013-10-25 19:56:00
4:15 PM,44.2,27.7,52,30.07,10.0,WSW,17.3,24.2,N/A,,Overcast,240,2013-10-25 20:15:00
4:35 PM,43.7,28.6,55,30.05,10.0,SW,11.5,23.0,N/A,,Overcast,220,2013-10-25 20:35:00
4:56 PM,43.9,28.2,54,30.03,10.0,SSW,17.3,25.3,N/A,,Overcast,210,2013-10-25 20:56:00
5:15 PM,43.7,28.2,54,30.02,10.0,SW,15.0,28.8,N/A,,Overcast,220,2013-10-25 21:15:00
5:31 PM,43.7,27.5,53,30.01,10.0,SW,17.3,25.3,N/A,,Overcast,220,2013-10-25 21:31:00
8:37 PM,46.4,32.0,57,29.87,10.0,SSW,17.3,32.2,N/A,,Overcast,210,2013-10-26 00:37:00
8:57 PM,46.4,33.8,62,29.86,10.0,SSW,20.7,26.5,N/A,,Overcast,210,2013-10-26 00:57:00
9:17 PM,48.2,32.0,54,29.84,10.0,SW,20.7,34.5,N/A,,Overcast,220,2013-10-26 01:17:00
9:37 PM,46.4,35.6,66,29.82,10.0,SSW,15.0,35.7,N/A,,Drizzle,210,2013-10-26 01:37:00
9:57 PM,48.2,33.8,58,29.80,10.0,SSW,21.9,32.2,N/A,,Overcast,210,2013-10-26 01:57:00
10:09 PM,48.7,34.3,58,29.79,10.0,SSW,17.3,35.7,N/A,,Overcast,210,2013-10-26 02:09:00
10:15 PM,48.7,35.1,59,29.79,10.0,SSW,23.0,41.4,N/A,Rain,Light Rain,200,2013-10-26 02:15:00
10:36 PM,46.4,37.9,72,29.79,7.0,SW,23.0,44.9,N/A,Rain,Rain,220,2013-10-26 02:36:00
10:55 PM,44.6,39.7,83,29.78,5.0,SW,23.0,33.4,N/A,Rain,Rain,220,2013-10-26 02:55:00
11:16 PM,44.6,40.1,84,29.76,5.0,SW,18.4,33.4,N/A,Rain,Light Rain,220,2013-10-26 03:16:00
11:35 PM,44.6,40.3,85,29.74,5.0,SW,24.2,36.8,N/A,Rain,Rain,220,2013-10-26 03:35:00
11:55 PM,45.9,40.3,81,29.71,10.0,SSW,17.3,28.8,N/A,,Light Drizzle,210,2013-10-26 03:55:00